ヴァイサラ第1彗星

40P/Vaisala 1 (2025)

English version
Home page
Updated on May 2, 2025

---------------------------------------------------------------------

・ プロフィール

・ 写真集

・ 軌道要素

Epoch 2025 May 5.0 TT = JDT 2460800.5
T 2025 Nov. 11.88667 TT                                 Pike
q   1.8236898            (2000.0)            P               Q
n   0.08945439     Peri.   52.02899     -0.98725359     +0.02606259
a   4.9514792      Node   128.90022     -0.06880244     -0.95944723
e   0.6316879      Incl.   11.63906     +0.14351506     -0.28068086
P  11.0
From 46 observations 2024 Nov. 29-2025 Mar. 18, mean residual 0".5.

・ 星図

・ 光度変化

        m1 = 10.5 + 5 logΔ + 15.0 log r

---------------------------------------------------------------------

軌道要素はM.P.E.C. 2025-G119に掲載されたものです。
星図はステラナビゲータ Ver.11 (アストロアーツ) で作成したものです。
光度グラフはComet for Windowsで作成したものです。

---------------------------------------------------------------------

Copyright(C) Seiichi Yoshida (comet@aerith.net). All rights reserved.